sat.trackr.live / text

‹ back to catalog

STARLINK-32358

NORAD 61531 · 2024-183Y

PAYLOAD ACTIVE UNKNOWN

§ Identity

Operator
Country
US
Launch date
2024-10-15
Launch site
AFETR
Launch vehicle
Mass (kg)
RCS (m²)

Purposes: comms

External: N2YO · Heavens-Above · Gunter

§ Orbital elements

Epoch: 2026-05-25T03:39:31.659264Z

Period
93.38 min
Inclination
53.1596°
Eccentricity
0.0000881
Mean motion
15.42165930 rev/d
Perigee alt
439.1 km
Apogee alt
440.3 km
Semi-major
6,817.9 km
B*
3.4082e-5
RAAN
144.8460°
Arg perigee
91.1639°
Mean anomaly
268.9468°
Rev number
9,139

§ Raw data

STARLINK-323581 61531U 24183Y   26145.15244976  .00001073  00000+0  34082-4 0  99912 61531  53.1596 144.8460 0000881  91.1639 268.9468 15.42165930 91391

JSON: /api/v1/satellites/61531 · /tle

For live sub-satellite position, see the globe view (requires WebGL).

§ Visibility from observer

Set your observer location to see the next 7 days of passes ≥ 10°. The values pass through the URL so the page stays shareable.

No JS? Fill the form by hand. The geolocation button needs JavaScript.